KUIPER-00008

导读

KUIPER-00008是美国亚马逊公司柯伊伯(Project Kuiper)卫星互联网项目的卫星,于2025年4月28日发射。该项目计划部署超过3000颗低轨卫星,旨在为全球,尤其偏远地区提供高速低延迟、可负担的互联网接入服务,深度整合亚马逊AWS云服务,打造云通信一体化的全球太空基础设施。

基本信息
目录编号:
63724
目录名称:
KUIPER-00008
国际标识:
2025-088A
轨道中心:
EARTH
卫星名称:
KUIPER-00008
卫星全名:
KUIPER-00008
卫星状态:
在轨 (已飞行410 天)
发射日期:
2025-04-28 UTC
国别 :
美国 (US)
星等 :
--
轨道信息
数据来源 国际轨道数据
星历时间: 2026-06-12T04:56:34+0800
23小时前
查看轨道信息
半长轴: 7007.69km
偏心率: 0.0000636
轨道倾角: 51.902°
近地点辐角 104.479°
升交点赤经 31.531°
平近点角 255.624°
近地点: 629.107km
远地点: 629.999km
周期: 97.302分钟
每日圈数: 14.799275
详细信息
使用方式:
暂无
2D轨道图
3D轨道图
轨道高度分析图
轨道倾角分析图
轨道综合分析图
查看轨道综合分析图